| time (UTC) | temp F | wind direction | speed MPH | gust MPH | rain 1hr in | rain 24hr in | rain mn in | humidity % | barometer mb |
| 20260903152032 | 78 | 277 | 6.0 | 12.0 | 0.00 | 0.00 | 0.00 | 60 | 1018.4 |
| 20260903151529 | 78 | 263 | 8.0 | 12.0 | 0.00 | 0.00 | 0.00 | 60 | 1018.3 |
| 20260903151029 | 78 | 259 | 7.0 | 13.0 | 0.00 | 0.00 | 0.00 | 60 | 1018.2 |
| 20260903150530 | 77 | 245 | 7.0 | 13.0 | 0.00 | 0.00 | 0.00 | 61 | 1018.3 |
| 20260903150038 | 77 | 273 | 5.0 | 11.0 | 0.00 | 0.00 | 0.00 | 61 | 1018.3 |
| 20260903145532 | 78 | 265 | 6.0 | 11.0 | 0.00 | 0.00 | 0.00 | 61 | 1018.4 |
| 20260903145031 | 77 | 219 | 6.0 | 11.0 | 0.00 | 0.00 | 0.00 | 61 | 1018.4 |
| 20260903144535 | 78 | 261 | 7.0 | 11.0 | 0.00 | 0.00 | 0.00 | 60 | 1018.4 |
| 20260903144028 | 78 | 284 | 5.0 | 12.0 | 0.00 | 0.00 | 0.00 | 62 | 1018.4 |
| 20260903143530 | 78 | 266 | 6.0 | 12.0 | 0.00 | 0.00 | 0.00 | 61 | 1018.4 |
| 20260903143027 | 79 | 246 | 7.0 | 12.0 | 0.00 | 0.00 | 0.00 | 60 | 1018.4 |
| 20260903142527 | 80 | 298 | 6.0 | 12.0 | 0.00 | 0.00 | 0.00 | 60 | 1018.4 |
| 20260903142027 | 80 | 267 | 6.0 | 10.0 | 0.00 | 0.00 | 0.00 | 59 | 1018.3 |
| 20260903141526 | 80 | 292 | 4.0 | 8.0 | 0.00 | 0.00 | 0.00 | 59 | 1018.3 |
| 20260903141025 | 80 | 276 | 2.0 | 8.0 | 0.00 | 0.00 | 0.00 | 60 | 1018.2 |
| 20260903140525 | 80 | 258 | 2.0 | 8.0 | 0.00 | 0.00 | 0.00 | 60 | 1018.1 |
| 20260903140024 | 79 | 253 | 3.0 | 9.0 | 0.00 | 0.00 | 0.00 | 61 | 1018.1 |
| 20260903135522 | 78 | 355 | 2.0 | 8.0 | 0.00 | 0.00 | 0.00 | 63 | 1018.1 |
| 20260903135022 | 78 | 277 | 3.0 | 9.0 | 0.00 | 0.00 | 0.00 | 63 | 1018.3 |
| 20260903134521 | 78 | 286 | 5.0 | 9.0 | 0.00 | 0.00 | 0.00 | 64 | 1018.4 |
| 20260903134021 | 77 | 218 | 4.0 | 9.0 | 0.00 | 0.00 | 0.00 | 64 | 1018.6 |
| 20260903133520 | 77 | 257 | 6.0 | 9.0 | 0.00 | 0.00 | 0.00 | 64 | 1018.6 |
| 20260903133020 | 77 | 283 | 5.0 | 10.0 | 0.00 | 0.00 | 0.00 | 64 | 1018.5 |
| 20260903132519 | 77 | 271 | 6.0 | 10.0 | 0.00 | 0.00 | 0.00 | 65 | 1018.5 |
| 20260903132019 | 77 | 315 | 5.0 | 10.0 | 0.00 | 0.00 | 0.00 | 65 | 1018.5 |
| 20260903131519 | 77 | 279 | 3.0 | 8.0 | 0.00 | 0.00 | 0.00 | 65 | 1018.5 |
| 20260903131019 | 77 | 282 | 4.0 | 8.0 | 0.00 | 0.00 | 0.00 | 65 | 1018.6 |
| 20260903130520 | 76 | 152 | 3.0 | 9.0 | 0.00 | 0.00 | 0.00 | 67 | 1018.7 |
| 20260903130018 | 76 | 217 | 4.0 | 10.0 | 0.00 | 0.00 | 0.00 | 66 | 1018.8 |
| 20260903125517 | 76 | 250 | 6.0 | 10.0 | 0.00 | 0.00 | 0.00 | 66 | 1018.8 |
| 20260903125017 | 76 | 310 | 3.0 | 11.0 | 0.00 | 0.00 | 0.00 | 67 | 1018.9 |
| 20260903124516 | 75 | 275 | 6.0 | 11.0 | 0.00 | 0.00 | 0.00 | 67 | 1019.0 |
| 20260903124015 | 75 | 267 | 7.0 | 9.0 | 0.00 | 0.00 | 0.00 | 67 | 1019.0 |
| 20260903123514 | 75 | 286 | 3.0 | 9.0 | 0.00 | 0.00 | 0.00 | 67 | 1019.0 |
| 20260903123015 | 75 | 279 | 4.0 | 8.0 | 0.00 | 0.00 | 0.00 | 68 | 1019.0 |
| 20260903122513 | 75 | 277 | 3.0 | 9.0 | 0.00 | 0.00 | 0.00 | 68 | 1019.1 |
| 20260903122012 | 75 | 263 | 4.0 | 10.0 | 0.00 | 0.00 | 0.00 | 68 | 1019.3 |
| 20260903121521 | 74 | 256 | 5.0 | 10.0 | 0.00 | 0.00 | 0.00 | 68 | 1019.4 |
| 20260903121010 | 74 | 327 | 6.0 | 15.0 | 0.00 | 0.00 | 0.00 | 68 | 1019.4 |
| 20260903120508 | 75 | 261 | 8.0 | 15.0 | 0.00 | 0.00 | 0.00 | 66 | 1019.5 |
| 20260903120011 | 75 | 269 | 6.0 | 10.0 | 0.00 | 0.00 | 0.00 | 65 | 1019.4 |
| 20260903115506 | 75 | 260 | 8.0 | 12.0 | 0.00 | 0.00 | 0.00 | 64 | 1019.5 |
| 20260903115005 | 76 | 232 | 8.0 | 12.0 | 0.00 | 0.00 | 0.00 | 62 | 1019.5 |
| 20260903114503 | 77 | 232 | 10.0 | 13.0 | 0.00 | 0.00 | 0.00 | 60 | 1019.4 |
| 20260903114003 | 77 | 247 | 8.0 | 12.0 | 0.00 | 0.00 | 0.00 | 59 | 1019.3 |
| 20260903113600 | 77 | 251 | 2.0 | 5.0 | 0.00 | 0.00 | 0.00 | 60 | 1019.2 |
| 20260903113100 | 76 | 258 | 3.0 | 7.0 | 0.00 | 0.00 | 0.00 | 60 | 1019.2 |
| 20260903112600 | 76 | 202 | 2.0 | 10.0 | 0.00 | 0.00 | 0.00 | 61 | 1019.2 |
| 20260903112100 | 76 | 202 | 6.0 | 10.0 | 0.00 | 0.00 | 0.00 | 61 | 1019.2 |
| 20260903111557 | 76 | 232 | 6.0 | 9.0 | 0.00 | 0.00 | 0.00 | 60 | 1019.1 |
| 20260903111057 | 77 | 264 | 5.0 | 9.0 | 0.00 | 0.00 | 0.00 | 61 | 1019.1 |
| 20260903110557 | 76 | 220 | 5.0 | 12.0 | 0.00 | 0.00 | 0.00 | 62 | 1019.0 |
| 20260903110056 | 77 | 247 | 6.0 | 10.0 | 0.00 | 0.00 | 0.00 | 62 | 1019.1 |
| 20260903105555 | 77 | 242 | 5.0 | 10.0 | 0.00 | 0.00 | 0.00 | 60 | 1019.1 |
| 20260903105054 | 77 | 270 | 4.0 | 9.0 | 0.00 | 0.00 | 0.00 | 58 | 1019.1 |
| 20260903104601 | 77 | 257 | 5.0 | 9.0 | 0.00 | 0.00 | 0.00 | 55 | 1019.1 |
| 20260903104052 | 76 | 276 | 6.0 | 10.0 | 0.00 | 0.00 | 0.00 | 57 | 1019.1 |
| 20260903103550 | 76 | 260 | 7.0 | 10.0 | 0.00 | 0.00 | 0.00 | 58 | 1019.0 |
| 20260903103050 | 76 | 259 | 4.0 | 9.0 | 0.00 | 0.00 | 0.00 | 59 | 1018.9 |
| 20260903102548 | 75 | 277 | 5.0 | 9.0 | 0.00 | 0.00 | 0.00 | 61 | 1018.9 |
| 20260903102046 | 75 | 275 | 2.0 | 7.0 | 0.00 | 0.00 | 0.00 | 63 | 1018.8 |
| 20260903101550 | 74 | 252 | 4.0 | 7.0 | 0.00 | 0.00 | 0.00 | 64 | 1018.8 |
| 20260903101043 | 74 | 173 | 5.0 | 10.0 | 0.00 | 0.00 | 0.00 | 66 | 1018.8 |
| 20260903100543 | 73 | 258 | 4.0 | 8.0 | 0.00 | 0.00 | 0.00 | 68 | 1018.9 |
| 20260903100045 | 73 | 233 | 4.0 | 7.0 | 0.00 | 0.00 | 0.00 | 66 | 1018.8 |
| 20260903095541 | 73 | 207 | 4.0 | 8.0 | 0.00 | 0.00 | 0.00 | 66 | 1018.8 |
| 20260903095042 | 73 | 247 | 5.0 | 9.0 | 0.00 | 0.00 | 0.00 | 66 | 1018.7 |
| 20260903094541 | 73 | 252 | 5.0 | 10.0 | 0.00 | 0.00 | 0.00 | 63 | 1018.7 |
| 20260903094042 | 74 | 230 | 4.0 | 10.0 | 0.00 | 0.00 | 0.00 | 61 | 1018.7 |
| 20260903093540 | 74 | 300 | 3.0 | 9.0 | 0.00 | 0.00 | 0.00 | 58 | 1018.5 |
| 20260903093039 | 74 | 255 | 6.0 | 9.0 | 0.00 | 0.00 | 0.00 | 56 | 1018.3 |
| 20260903092538 | 76 | 271 | 4.0 | 9.0 | 0.00 | 0.00 | 0.00 | 49 | 1018.3 |
| 20260903092037 | 77 | 282 | 3.0 | 7.0 | 0.00 | 0.00 | 0.00 | 42 | 1018.3 |
| 20260903091550 | 76 | 82 | 2.0 | 4.0 | 0.00 | 0.00 | 0.00 | 44 | 1018.1 |
| 20260903091035 | 76 | 88 | 1.0 | 3.0 | 0.00 | 0.00 | 0.00 | 45 | 1018.3 |
| 20260903090532 | 74 | 58 | 0.0 | 4.0 | 0.00 | 0.00 | 0.00 | 50 | 1018.4 |
| 20260903090031 | 74 | 22 | 2.0 | 4.0 | 0.00 | 0.00 | 0.00 | 53 | 1018.3 |
| 20260903085529 | 73 | 335 | 2.0 | 4.0 | 0.00 | 0.00 | 0.00 | 53 | 1018.4 |
| 20260903085028 | 73 | 299 | 0.0 | 3.0 | 0.00 | 0.00 | 0.00 | 53 | 1018.3 |
| 20260903084527 | 73 | 342 | 1.0 | 6.0 | 0.00 | 0.00 | 0.00 | 55 | 1018.3 |
| 20260903084025 | 73 | 342 | 0.0 | 6.0 | 0.00 | 0.00 | 0.00 | 54 | 1018.5 |
| 20260903083524 | 73 | 52 | 4.0 | 6.0 | 0.00 | 0.00 | 0.00 | 52 | 1018.6 |
| 20260903083022 | 72 | 102 | 0.0 | 0.0 | 0.00 | 0.00 | 0.00 | 52 | 1019.0 |
| 20260903082520 | 71 | 102 | 0.0 | 3.0 | 0.00 | 0.00 | 0.00 | 49 | 1018.8 |
| 20260903082019 | 70 | 102 | 2.0 | 6.0 | 0.00 | 0.00 | 0.00 | 48 | 1018.7 |
| 20260903081521 | 70 | 102 | 2.0 | 10.0 | 0.00 | 0.00 | 0.00 | 47 | 1018.5 |
| 20260903081016 | 69 | 89 | 4.0 | 10.0 | 0.00 | 0.00 | 0.00 | 45 | 1018.5 |
| 20260903080514 | 68 | 92 | 7.0 | 10.0 | 0.00 | 0.00 | 0.00 | 45 | 1018.6 |
| 20260903080013 | 68 | 101 | 7.0 | 9.0 | 0.00 | 0.00 | 0.00 | 44 | 1018.6 |
| 20260903075512 | 68 | 124 | 7.0 | 9.0 | 0.00 | 0.00 | 0.00 | 43 | 1018.5 |
| 20260903075009 | 68 | 108 | 7.0 | 10.0 | 0.00 | 0.00 | 0.00 | 44 | 1018.5 |
| 20260903074509 | 68 | 101 | 7.0 | 10.0 | 0.00 | 0.00 | 0.00 | 42 | 1018.6 |
| 20260903074007 | 68 | 117 | 7.0 | 10.0 | 0.00 | 0.00 | 0.00 | 44 | 1018.6 |
| 20260903073504 | 67 | 123 | 6.0 | 12.0 | 0.00 | 0.00 | 0.00 | 45 | 1018.5 |
| 20260903073014 | 67 | 115 | 8.0 | 12.0 | 0.00 | 0.00 | 0.00 | 45 | 1018.4 |
| 20260903072503 | 68 | 113 | 8.0 | 12.0 | 0.00 | 0.00 | 0.00 | 46 | 1018.3 |
| 20260903072004 | 68 | 107 | 7.0 | 12.0 | 0.00 | 0.00 | 0.00 | 43 | 1018.2 |
| 20260903071502 | 68 | 119 | 10.0 | 12.0 | 0.00 | 0.00 | 0.00 | 47 | 1018.1 |
| 20260903071059 | 68 | 125 | 9.0 | 13.0 | 0.00 | 0.00 | 0.00 | 45 | 1018.0 |
| 20260903070558 | 67 | 159 | 9.0 | 15.0 | 0.00 | 0.00 | 0.00 | 46 | 1017.9 |
| 20260903070059 | 67 | 120 | 11.0 | 15.0 | 0.00 | 0.00 | 0.00 | 47 | 1017.7 |
| 20260903065558 | 66 | 125 | 10.0 | 14.0 | 0.00 | 0.00 | 0.00 | 49 | 1017.8 |
| 20260903065054 | 66 | 107 | 11.0 | 14.0 | 0.00 | 0.00 | 0.00 | 51 | 1017.6 |
| 20260903064555 | 65 | 98 | 10.0 | 13.0 | 0.00 | 0.00 | 0.00 | 56 | 1017.6 |
| 20260903064054 | 64 | 98 | 10.0 | 13.0 | 0.00 | 0.00 | 0.00 | 65 | 1017.6 |
| 20260903063553 | 63 | 74 | 8.0 | 11.0 | 0.00 | 0.00 | 0.00 | 73 | 1017.5 |
| 20260903063053 | 64 | 115 | 2.0 | 6.0 | 0.00 | 0.00 | 0.00 | 83 | 1017.6 |
| 20260903062554 | 63 | 177 | 4.0 | 6.0 | 0.00 | 0.00 | 0.00 | 85 | 1017.5 |
| 20260903062051 | 64 | 117 | 3.0 | 7.0 | 0.00 | 0.00 | 0.00 | 88 | 1017.5 |
| 20260903061556 | 64 | 148 | 4.0 | 7.0 | 0.00 | 0.00 | 0.00 | 89 | 1017.5 |
| 20260903061051 | 65 | 108 | 2.0 | 6.0 | 0.00 | 0.00 | 0.00 | 90 | 1017.4 |
| 20260903060551 | 65 | 108 | 3.0 | 4.0 | 0.00 | 0.00 | 0.00 | 90 | 1017.5 |
| 20260903055550 | 65 | 64 | 3.0 | 6.0 | 0.00 | 0.00 | 0.00 | 89 | 1017.6 |
| 20260903055050 | 65 | 65 | 4.0 | 6.0 | 0.00 | 0.00 | 0.00 | 88 | 1017.7 |
| 20260903054550 | 64 | 98 | 5.0 | 7.0 | 0.00 | 0.00 | 0.00 | 87 | 1017.6 |
| 20260903054052 | 64 | 77 | 3.0 | 7.0 | 0.00 | 0.00 | 0.00 | 87 | 1017.6 |
| 20260903053552 | 64 | 103 | 4.0 | 7.0 | 0.00 | 0.00 | 0.00 | 87 | 1017.6 |
| 20260903053049 | 64 | 72 | 2.0 | 4.0 | 0.00 | 0.00 | 0.00 | 87 | 1017.6 |
| 20260903052549 | 65 | 231 | 0.0 | 4.0 | 0.00 | 0.00 | 0.00 | 87 | 1017.6 |
| 20260903052049 | 65 | 231 | 2.0 | 9.0 | 0.00 | 0.00 | 0.00 | 86 | 1017.3 |
| 20260903051549 | 65 | 78 | 2.0 | 9.0 | 0.00 | 0.00 | 0.00 | 85 | 1017.1 |
| 20260903051049 | 65 | 84 | 6.0 | 8.0 | 0.00 | 0.00 | 0.00 | 83 | 1017.2 |
| 20260903050549 | 66 | 81 | 3.0 | 4.0 | 0.00 | 0.00 | 0.00 | 82 | 1017.5 |
| 20260903050049 | 66 | 48 | 0.0 | 2.0 | 0.00 | 0.00 | 0.00 | 80 | 1017.4 |
| 20260903045548 | 66 | 48 | 1.0 | 3.0 | 0.00 | 0.00 | 0.00 | 79 | 1017.4 |
| 20260903045047 | 66 | 48 | 0.0 | 5.0 | 0.00 | 0.00 | 0.00 | 77 | 1017.3 |
| 20260903044548 | 66 | 45 | 2.0 | 4.0 | 0.00 | 0.00 | 0.00 | 75 | 1017.5 |
| 20260903044049 | 66 | 43 | 2.0 | 7.0 | 0.00 | 0.00 | 0.00 | 73 | 1017.7 |
| 20260903043547 | 66 | 117 | 2.0 | 7.0 | 0.00 | 0.00 | 0.00 | 70 | 1017.6 |
| 20260903043046 | 66 | 92 | 2.0 | 13.0 | 0.00 | 0.00 | 0.00 | 72 | 1017.4 |
| 20260903042546 | 67 | 66 | 3.0 | 13.0 | 0.00 | 0.00 | 0.00 | 68 | 1017.5 |
| 20260903042046 | 67 | 15 | 3.0 | 10.0 | 0.00 | 0.00 | 0.00 | 61 | 1017.7 |
| 20260903041546 | 67 | 98 | 7.0 | 10.0 | 0.00 | 0.00 | 0.00 | 65 | 1018.3 |
| 20260903041044 | 67 | 163 | 3.0 | 6.0 | 0.00 | 0.00 | 0.00 | 57 | 1017.8 |
| 20260903040546 | 67 | 38 | 0.0 | 6.0 | 0.00 | 0.00 | 0.00 | 62 | 1017.3 |
| 20260903040042 | 67 | 109 | 4.0 | 8.0 | 0.00 | 0.00 | 0.00 | 54 | 1017.0 |
| 20260903035541 | 67 | 94 | 6.0 | 8.0 | 0.00 | 0.00 | 0.00 | 54 | 1017.0 |
| 20260903035040 | 67 | 105 | 6.0 | 8.0 | 0.00 | 0.00 | 0.00 | 52 | 1017.0 |
| 20260903034540 | 67 | 113 | 6.0 | 8.0 | 0.00 | 0.00 | 0.00 | 57 | 1017.0 |
| 20260903034041 | 67 | 116 | 3.0 | 6.0 | 0.00 | 0.00 | 0.00 | 57 | 1017.1 |
| 20260903033544 | 67 | 92 | 2.0 | 8.0 | 0.00 | 0.00 | 0.00 | 58 | 1017.2 |
| 20260903033043 | 66 | 136 | 4.0 | 8.0 | 0.00 | 0.00 | 0.00 | 52 | 1017.3 |
| 20260903032539 | 66 | 119 | 5.0 | 10.0 | 0.00 | 0.00 | 0.00 | 54 | 1017.3 |
| 20260903032037 | 66 | 110 | 7.0 | 10.0 | 0.00 | 0.00 | 0.00 | 55 | 1017.2 |
| 20260903031542 | 66 | 113 | 6.0 | 9.0 | 0.00 | 0.00 | 0.00 | 65 | 1017.2 |
| 20260903031035 | 66 | 109 | 7.0 | 9.0 | 0.00 | 0.00 | 0.00 | 66 | 1017.1 |
| 20260903030535 | 66 | 113 | 7.0 | 9.0 | 0.00 | 0.00 | 0.00 | 67 | 1017.2 |
| 20260903030043 | 65 | 110 | 6.0 | 8.0 | 0.00 | 0.00 | 0.00 | 67 | 1017.2 |
| 20260903025532 | 64 | 117 | 7.0 | 9.0 | 0.00 | 0.00 | 0.00 | 71 | 1017.2 |
| 20260903025033 | 64 | 111 | 7.0 | 10.0 | 0.00 | 0.00 | 0.00 | 74 | 1017.2 |
| 20260903024530 | 63 | 126 | 6.0 | 9.0 | 0.00 | 0.00 | 0.00 | 82 | 1017.0 |
| 20260903024028 | 64 | 78 | 3.0 | 6.0 | 0.00 | 0.00 | 0.00 | 86 | 1017.0 |
| 20260903023532 | 65 | 102 | 3.0 | 6.0 | 0.00 | 0.00 | 0.00 | 86 | 1017.0 |
| 20260903023030 | 65 | 115 | 2.0 | 4.0 | 0.00 | 0.00 | 0.00 | 86 | 1017.0 |
| 20260903022527 | 64 | 126 | 2.0 | 6.0 | 0.00 | 0.00 | 0.00 | 85 | 1017.0 |
| 20260903022030 | 64 | 126 | 3.0 | 6.0 | 0.00 | 0.00 | 0.00 | 86 | 1016.9 |
| 20260903021539 | 65 | 100 | 2.0 | 3.0 | 0.00 | 0.00 | 0.00 | 87 | 1016.9 |
| 20260903021026 | 66 | 138 | 1.0 | 2.0 | 0.00 | 0.00 | 0.00 | 88 | 1017.0 |
| 20260903020526 | 66 | 88 | 0.0 | 3.0 | 0.00 | 0.00 | 0.00 | 89 | 1016.9 |
| 20260903020033 | 65 | 88 | 1.0 | 3.0 | 0.00 | 0.00 | 0.00 | 88 | 1016.9 |
| 20260903015526 | 65 | 86 | 2.0 | 3.0 | 0.00 | 0.00 | 0.00 | 87 | 1016.9 |
| 20260903015025 | 65 | 355 | 0.0 | 2.0 | 0.00 | 0.00 | 0.00 | 89 | 1016.9 |
| 20260903014525 | 64 | 111 | 1.0 | 4.0 | 0.00 | 0.00 | 0.00 | 88 | 1016.9 |
| 20260903014029 | 64 | 111 | 2.0 | 4.0 | 0.00 | 0.00 | 0.00 | 88 | 1016.9 |
| 20260903013527 | 64 | 71 | 1.0 | 2.0 | 0.00 | 0.00 | 0.00 | 91 | 1016.9 |
| 20260903013024 | 64 | 71 | 0.0 | 0.0 | 0.00 | 0.00 | 0.00 | 92 | 1016.9 |
| 20260903012523 | 64 | 71 | 0.0 | 3.0 | 0.00 | 0.00 | 0.00 | 92 | 1016.9 |
| 20260903012024 | 64 | 71 | 0.0 | 3.0 | 0.00 | 0.00 | 0.00 | 93 | 1016.8 |
| 20260903011525 | 63 | 71 | 1.0 | 4.0 | 0.00 | 0.00 | 0.00 | 93 | 1016.7 |
| 20260903011024 | 63 | 71 | 2.0 | 4.0 | 0.00 | 0.00 | 0.00 | 93 | 1016.7 |
| 20260903010526 | 63 | 71 | 2.0 | 4.0 | 0.00 | 0.00 | 0.00 | 93 | 1016.8 |
| 20260903010027 | 65 | 61 | 1.0 | 3.0 | 0.00 | 0.00 | 0.00 | 94 | 1016.9 |
| 20260903005519 | 65 | 105 | 0.0 | 1.0 | 0.00 | 0.00 | 0.00 | 94 | 1016.8 |
| 20260903005019 | 66 | 105 | 0.0 | 2.0 | 0.00 | 0.00 | 0.00 | 94 | 1016.8 |
| 20260903004520 | 66 | 105 | 0.0 | 3.0 | 0.00 | 0.00 | 0.00 | 94 | 1016.7 |
| 20260903004018 | 66 | 105 | 0.0 | 4.0 | 0.00 | 0.00 | 0.00 | 94 | 1016.8 |
| 20260903003518 | 66 | 105 | 2.0 | 4.0 | 0.00 | 0.00 | 0.00 | 94 | 1016.9 |
| 20260903003017 | 66 | 210 | 0.0 | 1.0 | 0.00 | 0.00 | 0.00 | 94 | 1016.9 |
| 20260903002517 | 66 | 210 | 0.0 | 2.0 | 0.00 | 0.00 | 0.00 | 94 | 1016.9 |
| 20260903002017 | 66 | 210 | 0.0 | 5.0 | 0.00 | 0.00 | 0.00 | 94 | 1016.9 |
| 20260903001516 | 66 | 234 | 3.0 | 5.0 | 0.00 | 0.00 | 0.00 | 93 | 1016.9 |
| 20260903001015 | 66 | 226 | 3.0 | 5.0 | 0.00 | 0.00 | 0.00 | 94 | 1016.8 |
| 20260903000519 | 66 | 5 | 0.0 | 2.0 | 0.00 | 0.00 | 0.00 | 93 | 1016.7 |
| 20260903000033 | 66 | 5 | 0.0 | 2.0 | 0.00 | 0.00 | 0.00 | 93 | 1016.7 |
| 20260902235514 | 66 | 5 | 0.0 | 3.0 | 0.00 | 0.00 | 0.00 | 93 | 1016.8 |
| 20260902235017 | 66 | 5 | 0.0 | 3.0 | 0.00 | 0.00 | 0.00 | 93 | 1016.7 |
| 20260902234513 | 66 | 5 | 0.0 | 0.0 | 0.00 | 0.00 | 0.00 | 93 | 1016.6 |
| 20260902234013 | 66 | 5 | 0.0 | 0.0 | 0.00 | 0.00 | 0.00 | 92 | 1016.5 |
| 20260902233513 | 67 | 5 | 0.0 | 3.0 | 0.00 | 0.00 | 0.00 | 92 | 1016.5 |
| 20260902233013 | 67 | 5 | 0.0 | 3.0 | 0.00 | 0.00 | 0.00 | 92 | 1016.5 |
| 20260902232512 | 67 | 5 | 0.0 | 0.0 | 0.00 | 0.00 | 0.00 | 92 | 1016.5 |
| 20260902232011 | 66 | 5 | 0.0 | 0.0 | 0.00 | 0.00 | 0.00 | 92 | 1016.6 |
| 20260902231512 | 66 | 5 | 0.0 | 0.0 | 0.00 | 0.00 | 0.00 | 92 | 1016.6 |
| 20260902231009 | 66 | 5 | 0.0 | 0.0 | 0.00 | 0.00 | 0.00 | 92 | 1016.7 |
| 20260902230511 | 66 | 5 | 0.0 | 0.0 | 0.00 | 0.00 | 0.00 | 91 | 1016.7 |
| 20260902230008 | 66 | 5 | 0.0 | 0.0 | 0.00 | 0.00 | 0.00 | 91 | 1016.7 |
| 20260902225507 | 66 | 5 | 0.0 | 0.0 | 0.00 | 0.00 | 0.00 | 91 | 1016.6 |
| 20260902225010 | 67 | 5 | 0.0 | 0.0 | 0.00 | 0.00 | 0.00 | 92 | 1016.7 |
| 20260902224505 | 67 | 5 | 0.0 | 0.0 | 0.00 | 0.00 | 0.00 | 92 | 1016.8 |
| 20260902224010 | 67 | 5 | 0.0 | 0.0 | 0.00 | 0.00 | 0.00 | 92 | 1016.8 |
| 20260902223505 | 67 | 5 | 0.0 | 0.0 | 0.00 | 0.00 | 0.00 | 91 | 1016.8 |
| 20260902223017 | 67 | 5 | 0.0 | 0.0 | 0.00 | 0.00 | 0.00 | 91 | 1016.9 |
| 20260902222506 | 67 | 5 | 0.0 | 0.0 | 0.00 | 0.00 | 0.00 | 91 | 1016.9 |
| 20260902222004 | 67 | 5 | 0.0 | 0.0 | 0.00 | 0.00 | 0.00 | 91 | 1016.8 |
| 20260902221504 | 67 | 5 | 0.0 | 0.0 | 0.00 | 0.00 | 0.00 | 91 | 1016.7 |
| 20260902221004 | 67 | 5 | 0.0 | 0.0 | 0.00 | 0.00 | 0.00 | 91 | 1016.7 |
| 20260902220504 | 67 | 5 | 0.0 | 0.0 | 0.00 | 0.00 | 0.00 | 91 | 1016.8 |
| 20260902220006 | 67 | 5 | 0.0 | 0.0 | 0.00 | 0.00 | 0.00 | 91 | 1016.7 |
| 20260902215503 | 67 | 5 | 0.0 | 0.0 | 0.00 | 0.00 | 0.00 | 91 | 1016.7 |
| 20260902215003 | 67 | 5 | 0.0 | 0.0 | 0.00 | 0.00 | 0.00 | 91 | 1016.8 |
| 20260902214510 | 67 | 5 | 0.0 | 0.0 | 0.00 | 0.00 | 0.00 | 90 | 1016.8 |
| 20260902214004 | 68 | 5 | 0.0 | 0.0 | 0.00 | 0.00 | 0.00 | 90 | 1016.9 |
| 20260902213503 | 68 | 5 | 0.0 | 0.0 | 0.00 | 0.00 | 0.00 | 91 | 1016.9 |
| 20260902213002 | 68 | 5 | 0.0 | 0.0 | 0.00 | 0.00 | 0.00 | 90 | 1016.9 |
| 20260902212503 | 68 | 5 | 0.0 | 0.0 | 0.00 | 0.00 | 0.00 | 90 | 1016.8 |
| 20260902212004 | 68 | 5 | 0.0 | 0.0 | 0.00 | 0.00 | 0.00 | 90 | 1016.8 |
| 20260902211505 | 68 | 267 | 0.0 | 0.0 | 0.00 | 0.00 | 0.00 | 90 | 1016.6 |
| 20260902211002 | 69 | 267 | 0.0 | 0.0 | 0.00 | 0.00 | 0.00 | 90 | 1016.6 |
| 20260902210502 | 69 | 267 | 0.0 | 0.0 | 0.00 | 0.00 | 0.00 | 90 | 1016.6 |
| 20260902210008 | 69 | 267 | 0.0 | 0.0 | 0.00 | 0.00 | 0.00 | 89 | 1016.5 |
| 20260902205501 | 69 | 267 | 0.0 | 1.0 | 0.00 | 0.00 | 0.00 | 89 | 1016.4 |
| 20260902205001 | 69 | 267 | 0.0 | 1.0 | 0.00 | 0.00 | 0.00 | 89 | 1016.3 |
| 20260902204503 | 69 | 267 | 0.0 | 1.0 | 0.00 | 0.00 | 0.00 | 89 | 1016.4 |
| 20260902204004 | 69 | 267 | 0.0 | 0.0 | 0.00 | 0.00 | 0.00 | 89 | 1016.4 |
| 20260902203501 | 69 | 267 | 0.0 | 0.0 | 0.00 | 0.00 | 0.00 | 89 | 1016.4 |
| 20260902203101 | 69 | 267 | 0.0 | 0.0 | 0.00 | 0.00 | 0.00 | 89 | 1016.4 |
| 20260902202600 | 69 | 267 | 0.0 | 1.0 | 0.00 | 0.00 | 0.00 | 89 | 1016.4 |
| 20260902202101 | 69 | 267 | 0.0 | 3.0 | 0.00 | 0.00 | 0.00 | 88 | 1016.3 |
| 20260902201559 | 70 | 267 | 0.0 | 3.0 | 0.00 | 0.00 | 0.00 | 88 | 1016.4 |
| 20260902201059 | 70 | 267 | 0.0 | 2.0 | 0.00 | 0.00 | 0.00 | 88 | 1016.4 |
| 20260902200600 | 70 | 267 | 1.0 | 3.0 | 0.00 | 0.00 | 0.00 | 88 | 1016.3 |
| 20260902200100 | 70 | 267 | 1.0 | 3.0 | 0.00 | 0.00 | 0.00 | 87 | 1016.2 |
| 20260902195600 | 70 | 242 | 1.0 | 3.0 | 0.00 | 0.00 | 0.00 | 87 | 1016.2 |
| 20260902195159 | 71 | 242 | 1.0 | 3.0 | 0.00 | 0.00 | 0.00 | 87 | 1016.2 |
| 20260902194559 | 71 | 242 | 0.0 | 0.0 | 0.00 | 0.00 | 0.00 | 87 | 1016.2 |
| 20260902194059 | 71 | 242 | 0.0 | 1.0 | 0.00 | 0.00 | 0.00 | 87 | 1016.2 |
| 20260902193559 | 71 | 242 | 0.0 | 3.0 | 0.00 | 0.00 | 0.00 | 87 | 1016.2 |
| 20260902193059 | 71 | 242 | 0.0 | 4.0 | 0.00 | 0.00 | 0.00 | 86 | 1016.3 |
| 20260902192557 | 71 | 269 | 2.0 | 4.0 | 0.00 | 0.00 | 0.00 | 86 | 1016.3 |
| 20260902192058 | 71 | 275 | 2.0 | 3.0 | 0.00 | 0.00 | 0.00 | 86 | 1016.3 |
| 20260902191559 | 71 | 252 | 2.0 | 4.0 | 0.00 | 0.00 | 0.00 | 86 | 1016.2 |
| 20260902191100 | 71 | 256 | 2.0 | 5.0 | 0.00 | 0.00 | 0.00 | 86 | 1016.3 |
| 20260902190600 | 71 | 171 | 0.0 | 6.0 | 0.00 | 0.00 | 0.00 | 86 | 1016.2 |
| 20260902190057 | 71 | 266 | 3.0 | 6.0 | 0.00 | 0.00 | 0.00 | 86 | 1016.4 |
| 20260902185557 | 71 | 263 | 1.0 | 6.0 | 0.00 | 0.00 | 0.00 | 86 | 1016.4 |
| 20260902185056 | 71 | 246 | 3.0 | 8.0 | 0.00 | 0.00 | 0.00 | 85 | 1016.5 |
| 20260902184603 | 71 | 236 | 4.0 | 8.0 | 0.00 | 0.00 | 0.00 | 85 | 1016.5 |
| 20260902184058 | 72 | 267 | 4.0 | 8.0 | 0.00 | 0.00 | 0.00 | 85 | 1016.6 |
| 20260902183556 | 72 | 271 | 1.0 | 8.0 | 0.00 | 0.00 | 0.00 | 84 | 1016.6 |
| 20260902183104 | 72 | 236 | 0.0 | 7.0 | 0.00 | 0.00 | 0.00 | 84 | 1016.6 |
| 20260902182555 | 72 | 253 | 0.0 | 8.0 | 0.00 | 0.00 | 0.00 | 84 | 1016.7 |
| 20260902182055 | 72 | 256 | 3.0 | 9.0 | 0.00 | 0.00 | 0.00 | 82 | 1016.7 |
| 20260902181556 | 72 | 303 | 2.0 | 9.0 | 0.00 | 0.00 | 0.00 | 82 | 1016.7 |
| 20260902181055 | 72 | 244 | 2.0 | 8.0 | 0.00 | 0.00 | 0.00 | 82 | 1016.7 |
| 20260902180554 | 72 | 281 | 5.0 | 10.0 | 0.00 | 0.00 | 0.00 | 82 | 1016.7 |
| 20260902180055 | 72 | 280 | 3.0 | 9.0 | 0.00 | 0.00 | 0.00 | 82 | 1016.6 |
| 20260902175554 | 72 | 260 | 3.0 | 9.0 | 0.00 | 0.00 | 0.00 | 81 | 1016.6 |
| 20260902175056 | 73 | 264 | 6.0 | 9.0 | 0.00 | 0.00 | 0.00 | 80 | 1016.5 |
| 20260902174557 | 73 | 267 | 5.0 | 9.0 | 0.00 | 0.00 | 0.00 | 80 | 1016.6 |
| 20260902174054 | 74 | 272 | 5.0 | 9.0 | 0.00 | 0.00 | 0.00 | 79 | 1016.6 |
| 20260902173554 | 74 | 275 | 4.0 | 9.0 | 0.00 | 0.00 | 0.00 | 79 | 1016.6 |
| 20260902173117 | 74 | 255 | 3.0 | 9.0 | 0.00 | 0.00 | 0.00 | 80 | 1016.6 |
| 20260902172552 | 73 | 279 | 3.0 | 9.0 | 0.00 | 0.00 | 0.00 | 81 | 1016.6 |
| 20260902172052 | 74 | 279 | 5.0 | 10.0 | 0.00 | 0.00 | 0.00 | 79 | 1016.7 |
| 20260902171602 | 74 | 268 | 4.0 | 8.0 | 0.00 | 0.00 | 0.00 | 79 | 1016.7 |
| 20260902171052 | 74 | 265 | 5.0 | 8.0 | 0.00 | 0.00 | 0.00 | 79 | 1016.6 |
| 20260902170551 | 75 | 271 | 2.0 | 13.0 | 0.00 | 0.00 | 0.00 | 79 | 1016.7 |
| 20260902170057 | 74 | 301 | 5.0 | 13.0 | 0.00 | 0.00 | 0.00 | 79 | 1016.7 |
| 20260902165551 | 75 | 267 | 4.0 | 9.0 | 0.00 | 0.00 | 0.00 | 77 | 1016.7 |
| 20260902165051 | 74 | 293 | 3.0 | 12.0 | 0.00 | 0.00 | 0.00 | 79 | 1016.7 |
| 20260902164555 | 74 | 279 | 5.0 | 12.0 | 0.00 | 0.00 | 0.00 | 78 | 1016.7 |
| 20260902164051 | 74 | 273 | 4.0 | 10.0 | 0.00 | 0.00 | 0.00 | 78 | 1016.6 |
| 20260902163551 | 74 | 261 | 5.0 | 12.0 | 0.00 | 0.00 | 0.00 | 78 | 1016.5 |
| 20260902163050 | 74 | 271 | 3.0 | 12.0 | 0.00 | 0.00 | 0.00 | 78 | 1016.5 |
| 20260902162550 | 74 | 257 | 7.0 | 12.0 | 0.00 | 0.00 | 0.00 | 79 | 1016.6 |
| 20260902162051 | 74 | 279 | 7.0 | 13.0 | 0.00 | 0.00 | 0.00 | 79 | 1016.5 |
| 20260902161549 | 74 | 263 | 7.0 | 13.0 | 0.00 | 0.00 | 0.00 | 79 | 1016.5 |
| 20260902161049 | 74 | 271 | 8.0 | 14.0 | 0.00 | 0.00 | 0.00 | 79 | 1016.5 |
| 20260902160548 | 74 | 300 | 6.0 | 15.0 | 0.00 | 0.00 | 0.00 | 80 | 1016.5 |
| 20260902155548 | 75 | 248 | 8.0 | 14.0 | 0.00 | 0.00 | 0.00 | 78 | 1016.7 |
| 20260902155048 | 75 | 285 | 5.0 | 10.0 | 0.00 | 0.00 | 0.00 | 77 | 1016.7 |
| 20260902154548 | 75 | 217 | 5.0 | 14.0 | 0.00 | 0.00 | 0.00 | 78 | 1016.8 |
| 20260902154049 | 75 | 245 | 6.0 | 16.0 | 0.00 | 0.00 | 0.00 | 78 | 1016.8 |
| 20260902153549 | 74 | 275 | 10.0 | 16.0 | 0.00 | 0.00 | 0.00 | 77 | 1016.7 |
| 20260902153047 | 75 | 279 | 9.0 | 15.0 | 0.00 | 0.00 | 0.00 | 77 | 1016.7 |
| 20260902152550 | 75 | 209 | 7.0 | 14.0 | 0.00 | 0.00 | 0.00 | 78 | 1016.8 |